Weather in Strelna

Russia / Saint-Petersburg and Leningrad Oblast     59°50′55″N   30°02′37″E
temp.,
°C
wind,
m/s
gust,
m/s
humid.,
%
clouds,
%
prec.,
mm/h
press.,
hPa
HPBL,
m
17 september, fri
fri1700:00+3ene2285100 0.0 102214
03:00+2ne119076 0.0 102311
06:00+2e1190100 0.0 102210
09:00+5e3475100 0.0 1023214
12:00+10e455671 0.0 10231464
15:00+10ene454911 0.1 10231529
18:00+8ene46615 0.0 1024597
21:00+3ene24845 0.0 102553
18 september, sat
sat1800:00+3e228816 0.0 102616
03:00+6e2261100 0.0 102639
06:00+6ene2261100 0.0 102747
09:00+7ene2465100 0.0 1027168
12:00+10e454678 0.0 10271672
15:00+11ene554746 0.0 10271637
18:00+9ne585698 0.0 1026564
21:00+5ne31285100 0.0 1027348
19 september, sun
sun1900:00+6e497686 0.0 1028411
03:00+2ene389273 0.0 1028211
06:00+1ene399491 0.0 1028231
09:00+4ene51073100 0.0 1028451
12:00+8ene685495 0.0 10281030
15:00+10ene684917 0.0 10271318
18:00+8ene69599 0.0 1027926
21:00+4ne412725 0.0 1028351
20 september, mon
mon2000:00+4ene4127491 0.0 1028427
03:00+4ene51275100 0.0 1028450
06:00+3ene51282100 0.0 1028528
09:00+4ene61274100 0.0 1029622
12:00+6ene71058100 0.0 1029897
15:00+8ene7948100 0.0 10281162
18:00+7ene595792 0.0 10271046
21:00+4ene41269100 0.0 1027515
21 september, tue
tue2100:00+4ene41170100 0.0 1026436
03:00+1ene398894 0.0 1025211
06:000ene3109347 0.0 1024234
09:00+4ene4107375 0.0 1023452
12:00+8ene5754100 0.0 1021780
15:00+9ene575191 0.0 10201083
18:00+7ene4862100 0.0 1019928
21:00+6ene41078100 0.1 1019840